Galena, AK

11:40 PM AKDT on September 23, 2017 (GMT -0800)
Pitka

Weather History for PAGA - November, 2012

Change the Weather History Date:

Monday, November 26, 2012

  Actual Average Record
Temperature  
Mean Temperature -14 °F -  
Max Temperature -7 °F 6 °F 35 °F (2002)
Min Temperature -20 °F -7 °F -45 °F (1974)
Degree Days  
Heating Degree Days 78    
Moisture  
Dew Point -21 °F    
Average Humidity 78    
Maximum Humidity 82    
Minimum Humidity 71    
Precipitation  
Precipitation 0.00 in - - ()
Sea Level Pressure  
Sea Level Pressure 30.34 in    
Wind  
Wind Speed 0 mph (NW)    
Max Wind Speed 5 mph    
Max Gust Speed -    
Visibility 10 miles    
Events      
Averages and records for this station are not official NWS values.
T = Trace of Precipitation, MM = Missing Value Source: NWS Daily Summary

Daily Weather History Graph

Daily Weather History Graph

Search for Another Location

Airport or City:

Trip Planner

Search our weather history database for the weather conditions in past years. The results will help you decide how hot, cold, wet, or windy it might be!

Date:

Astronomy

Nov. 26, 2012 Rise Set
Actual Time 10:41 AM AKST 3:48 PM AKST
Civil Twilight 9:30 AM AKST 4:59 PM AKST
Nautical Twilight 8:24 AM AKST 6:05 PM AKST
Astronomical Twilight 7:24 AM AKST 7:05 PM AKST
Moon 3:11 PM AKST (11/26) 8:33 AM AKST (11/26)
Length of Visible Light 7h 29m
Length of Day
5h 07m
Waxing Gibbous, 97% of the Moon is Illuminated
Nov 26
Waxing Gibbous
Nov 28
Full
Dec 6
Last Quarter
Dec 12
New
Dec 19
First Quarter

Hourly Weather History & Observations

Time (AKST) Temp. Windchill Dew Point Humidity Pressure Visibility Wind Dir Wind Speed Gust Speed Precip Events Conditions
12:58 AM -20.0 °F - -25.1 °F 78% 30.48 in 10.0 mi Calm Calm - N/A   Clear
1:58 AM -18.9 °F - -25.1 °F 74% 30.47 in 10.0 mi Calm Calm - N/A   Clear
2:58 AM -20.0 °F - -25.1 °F 78% 30.46 in 10.0 mi Calm Calm - N/A   Clear
3:58 AM -20.0 °F - -25.1 °F 78% 30.45 in 9.0 mi Calm Calm - N/A   Clear
4:58 AM -20.0 °F - -25.1 °F 78% 30.44 in 10.0 mi Calm Calm - N/A   Clear
5:58 AM -20.0 °F - -25.1 °F 78% 30.42 in 10.0 mi Calm Calm - N/A   Clear
6:58 AM -18.9 °F - -24.0 °F 78% 30.40 in 10.0 mi Calm Calm - N/A   Clear
7:58 AM -18.9 °F - -25.1 °F 74% 30.40 in 10.0 mi Calm Calm - N/A   Clear
8:58 AM -18.0 °F - -24.0 °F 74% 30.39 in 10.0 mi Calm Calm - N/A   Clear
9:58 AM -18.0 °F - -23.1 °F 78% 30.38 in 10.0 mi Calm Calm - N/A   Clear
10:58 AM -18.0 °F - -23.1 °F 78% 30.37 in 10.0 mi Calm Calm - N/A   Clear
11:58 AM -13.0 °F - -18.0 °F 78% 30.36 in 8.0 mi Calm Calm - N/A   Clear
12:58 PM -9.9 °F - -17.0 °F 71% 30.34 in 10.0 mi Calm Calm - N/A   Clear
1:58 PM -7.1 °F -15.9 °F -11.9 °F 79% 30.33 in 10.0 mi NNW 3.5 mph - N/A   Clear
2:58 PM -9.0 °F - -15.0 °F 75% 30.32 in 10.0 mi Calm Calm - N/A   Clear
3:58 PM -11.0 °F - -16.1 °F 78% 30.31 in 10.0 mi Calm Calm - N/A   Clear
4:58 PM -13.0 °F - -17.0 °F 82% 30.28 in 10.0 mi Calm Calm - N/A   Clear
5:58 PM -14.1 °F - -18.0 °F 82% 30.27 in 10.0 mi Calm Calm - N/A   Clear
6:58 PM -15.0 °F - -20.0 °F 78% 30.25 in 10.0 mi Calm Calm - N/A   Clear
7:58 PM -16.1 °F - -20.9 °F 79% 30.25 in 10.0 mi Calm Calm - N/A   Clear
8:58 PM -16.1 °F - -20.9 °F 79% 30.22 in 10.0 mi Calm Calm - N/A   Clear
9:58 PM -16.1 °F - -20.9 °F 79% 30.20 in 10.0 mi Calm Calm - N/A   Clear
10:58 PM -15.0 °F -27.4 °F -20.0 °F 78% 30.22 in 10.0 mi West 4.6 mph - N/A   Clear
11:58 PM -16.1 °F - -20.9 °F 79% 30.23 in 10.0 mi Calm Calm - N/A   Clear